N8052D KBFI-KSFO

Flight info

Callsign N8052D
Flight time 1h 39m
Altitude 39000
Route JJAMM ELMAA ERAVE Q1 ETCHY MLBEC BDEGA4
Aircraft B738/M-SDE2E3FGHIRWXY/LB1

Departure

Time 2026-05-04 23:16
Airport King County International Airport - Boeing Field (KBFI)

Arrival

Time 2026-05-05 00:56
Airport San Francisco International Airport (KSFO)
Time Latitude Longitude Altitude Speed Heading
2026-05-04 22:53 47.53478 -122.30245 23 ft 0 kts 51°
2026-05-04 23:12 47.53490 -122.30240 25 ft 5 kts
2026-05-04 23:12 47.53517 -122.30269 24 ft 7 kts 290°
2026-05-04 23:12 47.53526 -122.30371 26 ft 14 kts 306°
2026-05-04 23:13 47.53600 -122.30465 23 ft 14 kts 321°
2026-05-04 23:13 47.53682 -122.30552 25 ft 14 kts 329°
2026-05-04 23:13 47.53758 -122.30615 27 ft 12 kts 332°
2026-05-04 23:13 47.53849 -122.30692 29 ft 17 kts 328°
2026-05-04 23:14 47.53947 -122.30777 29 ft 15 kts 331°
2026-05-04 23:14 47.54040 -122.30854 25 ft 15 kts 327°
2026-05-04 23:14 47.54095 -122.30924 28 ft 0 kts 316°
2026-05-04 23:15 47.54104 -122.30952 25 ft 10 kts 282°
2026-05-04 23:15 47.54068 -122.31070 27 ft 14 kts 237°
2026-05-04 23:15 47.54008 -122.31095 27 ft 7 kts 150°
2026-05-04 23:15 47.54007 -122.31095 27 ft 0 kts 150°
2026-05-04 23:16 47.54005 -122.31093 27 ft 5 kts 150°
2026-05-04 23:16 47.53660 -122.30802 22 ft 109 kts 150°
2026-05-04 23:16 47.52747 -122.30019 196 ft 182 kts 152°
2026-05-04 23:16 47.51629 -122.29078 1334 ft 183 kts 153°
2026-05-04 23:17 47.50482 -122.28106 1956 ft 209 kts 153°
2026-05-04 23:17 47.49110 -122.26943 2016 ft 244 kts 152°
2026-05-04 23:17 47.47580 -122.25641 1997 ft 264 kts 152°
2026-05-04 23:17 47.45984 -122.24281 1992 ft 264 kts 152°
2026-05-04 23:18 47.44393 -122.22927 1979 ft 264 kts 152°
2026-05-04 23:18 47.42801 -122.21578 1999 ft 262 kts 152°
2026-05-04 23:18 47.41220 -122.20240 2004 ft 262 kts 152°
2026-05-04 23:18 47.39633 -122.18917 2031 ft 262 kts 156°
2026-05-04 23:19 47.37852 -122.18237 1621 ft 274 kts 181°
2026-05-04 23:19 47.36061 -122.18888 1688 ft 264 kts 215°
2026-05-04 23:19 47.34901 -122.20837 2013 ft 253 kts 246°
2026-05-04 23:19 47.34230 -122.23250 2025 ft 254 kts 244°
2026-05-04 23:20 47.33386 -122.25535 2108 ft 252 kts 242°
2026-05-04 23:20 47.32548 -122.27825 2686 ft 254 kts 243°
2026-05-04 23:20 47.31704 -122.30161 3533 ft 263 kts 243°
2026-05-04 23:20 47.30837 -122.32555 4460 ft 267 kts 243°
2026-05-04 23:21 47.29937 -122.35016 5226 ft 278 kts 243°
2026-05-04 23:21 47.29321 -122.36683 5801 ft 281 kts 243°
2026-05-04 23:21 47.28380 -122.39212 6776 ft 281 kts 243°
2026-05-04 23:21 47.27123 -122.42590 7917 ft 287 kts 243°
2026-05-04 23:22 47.26143 -122.45191 8742 ft 293 kts 243°
2026-05-04 23:22 47.25473 -122.46971 9352 ft 294 kts 243°
2026-05-04 23:22 47.24477 -122.49623 10205 ft 298 kts 243°
2026-05-04 23:22 47.23469 -122.52285 10977 ft 303 kts 243°
2026-05-04 23:23 47.22436 -122.55005 11829 ft 306 kts 243°
2026-05-04 23:23 47.21393 -122.57746 12695 ft 310 kts 243°
2026-05-04 23:23 47.20327 -122.60531 13554 ft 314 kts 243°
2026-05-04 23:23 47.19250 -122.63371 14262 ft 324 kts 244°
2026-05-04 23:24 47.18146 -122.66404 14456 ft 350 kts 244°
2026-05-04 23:24 47.16980 -122.69650 14948 ft 363 kts 244°
2026-05-04 23:24 47.15804 -122.72914 15711 ft 368 kts 244°
2026-05-04 23:24 47.14598 -122.76246 16534 ft 371 kts 245°
2026-05-04 23:25 47.13370 -122.79625 17304 ft 376 kts 245°
2026-05-04 23:25 47.12127 -122.83034 18050 ft 381 kts 245°
2026-05-04 23:25 47.10867 -122.86482 18720 ft 386 kts 245°
2026-05-04 23:25 47.09586 -122.89978 19385 ft 391 kts 245°
2026-05-04 23:26 47.08290 -122.93510 20034 ft 395 kts 245°
2026-05-04 23:26 47.06978 -122.97084 20667 ft 400 kts 245°
2026-05-04 23:26 47.05648 -123.00699 21275 ft 406 kts 245°
2026-05-04 23:26 47.04295 -123.04371 21858 ft 411 kts 245°
2026-05-04 23:27 47.02925 -123.08084 22477 ft 416 kts 245°
2026-05-04 23:27 47.01538 -123.11839 23098 ft 421 kts 245°
2026-05-04 23:27 47.00136 -123.15628 23662 ft 425 kts 245°
2026-05-04 23:27 46.98722 -123.19448 24178 ft 429 kts 245°
2026-05-04 23:28 46.97291 -123.23305 24721 ft 431 kts 245°
2026-05-04 23:28 46.95864 -123.27148 25242 ft 435 kts 245°
2026-05-04 23:28 46.94412 -123.31051 25742 ft 438 kts 245°
2026-05-04 23:28 46.92812 -123.34875 26181 ft 447 kts 232°
2026-05-04 23:29 46.90449 -123.37875 26637 ft 455 kts 211°
2026-05-04 23:29 46.87538 -123.39694 27145 ft 458 kts 194°
2026-05-04 23:29 46.84371 -123.40226 27607 ft 459 kts 178°
2026-05-04 23:29 46.81163 -123.40141 28060 ft 462 kts 176°
2026-05-04 23:30 46.77941 -123.39981 28456 ft 466 kts 176°
2026-05-04 23:30 46.74718 -123.39804 28884 ft 469 kts 176°
2026-05-04 23:30 46.71446 -123.39638 29310 ft 473 kts 176°
2026-05-04 23:30 46.68147 -123.39491 29732 ft 476 kts 176°
2026-05-04 23:31 46.64825 -123.39363 30098 ft 479 kts 177°
2026-05-04 23:31 46.61477 -123.39249 30433 ft 482 kts 177°
2026-05-04 23:31 46.58113 -123.39142 30834 ft 483 kts 177°
2026-05-04 23:31 46.54741 -123.39039 31193 ft 485 kts 177°
2026-05-04 23:32 46.51349 -123.38937 31483 ft 488 kts 176°
2026-05-04 23:32 46.47945 -123.38833 31756 ft 492 kts 176°
2026-05-04 23:32 46.44512 -123.38728 32089 ft 494 kts 176°
2026-05-04 23:32 46.41063 -123.38622 32359 ft 497 kts 176°
2026-05-04 23:33 46.37604 -123.38515 32734 ft 497 kts 176°
2026-05-04 23:33 46.34144 -123.38409 33181 ft 496 kts 176°
2026-05-04 23:33 46.30699 -123.38304 33643 ft 494 kts 176°
2026-05-04 23:33 46.27258 -123.38198 34008 ft 495 kts 176°
2026-05-04 23:34 46.23814 -123.38092 34279 ft 495 kts 176°
2026-05-04 23:34 46.20428 -123.37989 34988 ft 485 kts 175°
2026-05-04 23:34 46.17113 -123.37893 35955 ft 470 kts 175°
2026-05-04 23:34 46.13845 -123.37796 36259 ft 472 kts 175°
2026-05-04 23:35 46.07182 -123.37582 36378 ft 484 kts 175°
2026-05-04 23:35 46.03808 -123.37475 36632 ft 484 kts 175°
2026-05-04 23:35 46.00442 -123.37372 37014 ft 482 kts 175°
2026-05-04 23:36 45.97083 -123.37271 37343 ft 482 kts 175°
2026-05-04 23:36 45.93723 -123.37169 37536 ft 484 kts 175°
2026-05-04 23:36 45.90353 -123.37066 37754 ft 485 kts 175°
2026-05-04 23:36 45.86979 -123.36963 37886 ft 486 kts 175°
2026-05-04 23:37 45.80186 -123.36754 38026 ft 495 kts 175°
2026-05-04 23:37 45.76744 -123.36650 38294 ft 495 kts 175°
2026-05-04 23:37 45.73300 -123.36547 38636 ft 494 kts 175°
2026-05-04 23:38 45.69869 -123.36445 38894 ft 493 kts 175°
2026-05-04 23:38 45.66430 -123.36342 38940 ft 496 kts 175°
2026-05-04 23:38 45.59518 -123.36133 38943 ft 496 kts 175°
2026-05-04 23:39 45.52652 -123.35930 38949 ft 490 kts 175°
2026-05-04 23:39 45.45838 -123.35726 38940 ft 487 kts 175°
2026-05-04 23:40 45.39110 -123.35524 38942 ft 485 kts 175°
2026-05-04 23:40 45.32360 -123.35322 38953 ft 484 kts 175°
2026-05-04 23:41 45.25622 -123.35121 38955 ft 484 kts 175°
2026-05-04 23:41 45.18875 -123.34919 38953 ft 485 kts 175°
2026-05-04 23:42 45.12106 -123.34718 38953 ft 487 kts 175°
2026-05-04 23:42 45.05319 -123.34518 38966 ft 488 kts 174°
2026-05-04 23:43 44.98528 -123.34318 38975 ft 489 kts 174°
2026-05-04 23:43 44.91713 -123.34117 38965 ft 490 kts 174°
2026-05-04 23:44 44.84881 -123.33917 38970 ft 491 kts 174°
2026-05-04 23:44 44.78089 -123.33718 38968 ft 491 kts 174°
2026-05-04 23:45 44.71261 -123.33519 38990 ft 490 kts 174°
2026-05-04 23:45 44.64419 -123.33321 38977 ft 490 kts 174°
2026-05-04 23:46 44.57604 -123.33122 38992 ft 489 kts 174°
2026-05-04 23:46 44.50795 -123.32923 38977 ft 489 kts 174°
2026-05-04 23:47 44.44003 -123.32679 38973 ft 487 kts 173°
2026-05-04 23:47 44.37278 -123.32390 38994 ft 486 kts 173°
2026-05-04 23:48 44.30511 -123.32107 38990 ft 486 kts 173°
2026-05-04 23:48 44.23761 -123.31833 38999 ft 485 kts 173°
2026-05-04 23:49 44.17009 -123.31561 39014 ft 485 kts 173°
2026-05-04 23:49 44.10267 -123.31292 38992 ft 484 kts 173°
2026-05-04 23:50 44.03523 -123.31024 39000 ft 484 kts 173°
2026-05-04 23:50 43.96793 -123.30758 39000 ft 483 kts 173°
2026-05-04 23:51 43.90115 -123.30493 39009 ft 483 kts 172°
2026-05-04 23:51 43.83387 -123.30226 39000 ft 484 kts 172°
2026-05-04 23:52 43.76645 -123.29961 39013 ft 484 kts 172°
2026-05-04 23:52 43.69923 -123.29696 39008 ft 483 kts 172°
2026-05-04 23:53 43.63184 -123.29431 38999 ft 483 kts 172°
2026-05-04 23:53 43.56508 -123.29170 39004 ft 483 kts 172°
2026-05-04 23:54 43.49776 -123.28906 39005 ft 484 kts 172°
2026-05-04 23:54 43.43033 -123.28643 38989 ft 484 kts 172°
2026-05-04 23:55 43.36297 -123.28381 38987 ft 484 kts 172°
2026-05-04 23:56 43.26183 -123.27989 38987 ft 484 kts 171°
2026-05-04 23:56 43.19497 -123.27731 38978 ft 483 kts 171°
2026-05-04 23:57 43.12778 -123.27472 38978 ft 481 kts 171°
2026-05-04 23:57 43.06087 -123.27214 38983 ft 480 kts 171°
2026-05-04 23:58 42.99408 -123.26957 38958 ft 480 kts 171°
2026-05-04 23:58 42.92737 -123.26701 38954 ft 478 kts 171°
2026-05-04 23:59 42.86093 -123.26447 38968 ft 477 kts 171°
2026-05-04 23:59 42.79496 -123.26195 38960 ft 476 kts 171°
2026-05-05 00:00 42.72875 -123.25941 38930 ft 475 kts 171°
2026-05-05 00:00 42.66258 -123.25689 38959 ft 475 kts 171°
2026-05-05 00:01 42.59635 -123.25438 38922 ft 476 kts 171°
2026-05-05 00:01 42.53004 -123.25185 38907 ft 477 kts 171°
2026-05-05 00:02 42.46384 -123.24937 38923 ft 475 kts 171°
2026-05-05 00:02 42.39816 -123.24698 38910 ft 474 kts 171°
2026-05-05 00:03 42.33206 -123.24460 38884 ft 475 kts 171°
2026-05-05 00:03 42.26605 -123.24221 38899 ft 474 kts 171°
2026-05-05 00:04 42.20017 -123.23983 38902 ft 473 kts 171°
2026-05-05 00:04 42.13439 -123.23746 38919 ft 473 kts 171°
2026-05-05 00:05 42.06866 -123.23508 38927 ft 472 kts 171°
2026-05-05 00:05 42.00295 -123.23272 38918 ft 472 kts 171°
2026-05-05 00:06 41.93735 -123.23037 38922 ft 471 kts 171°
2026-05-05 00:06 41.87180 -123.22801 38926 ft 471 kts 171°
2026-05-05 00:07 41.80645 -123.22569 38931 ft 470 kts 171°
2026-05-05 00:07 41.74138 -123.22336 38935 ft 470 kts 171°
2026-05-05 00:08 41.67592 -123.22103 38940 ft 471 kts 171°
2026-05-05 00:08 41.62095 -123.21907 38952 ft 471 kts 171°
2026-05-05 00:09 41.55557 -123.21674 38934 ft 475 kts 171°
2026-05-05 00:09 41.48951 -123.21441 38955 ft 475 kts 171°
2026-05-05 00:10 41.42357 -123.21209 38958 ft 474 kts 172°
2026-05-05 00:10 41.35769 -123.20977 38978 ft 473 kts 172°
2026-05-05 00:11 41.29186 -123.20769 38981 ft 472 kts 172°
2026-05-05 00:11 41.22616 -123.20611 39023 ft 472 kts 172°
2026-05-05 00:12 41.16021 -123.20455 39000 ft 472 kts 172°
2026-05-05 00:12 41.09503 -123.20296 39014 ft 472 kts 172°
2026-05-05 00:13 41.02929 -123.20133 39002 ft 472 kts 173°
2026-05-05 00:13 40.96368 -123.19969 39003 ft 471 kts 172°
2026-05-05 00:14 40.89797 -123.19804 38985 ft 472 kts 172°
2026-05-05 00:14 40.83271 -123.19641 38978 ft 473 kts 173°
2026-05-05 00:15 40.76693 -123.19477 38988 ft 471 kts 173°
2026-05-05 00:15 40.70128 -123.19316 38975 ft 473 kts 173°
2026-05-05 00:16 40.63547 -123.19154 38991 ft 474 kts 173°
2026-05-05 00:16 40.56947 -123.18990 38971 ft 474 kts 173°
2026-05-05 00:17 40.50335 -123.18828 38983 ft 473 kts 173°
2026-05-05 00:17 40.43749 -123.18667 38984 ft 473 kts 174°
2026-05-05 00:18 40.37213 -123.18507 38981 ft 472 kts 174°
2026-05-05 00:18 40.30649 -123.18347 38986 ft 471 kts 174°
2026-05-05 00:19 40.24097 -123.18186 39001 ft 470 kts 174°
2026-05-05 00:19 40.17550 -123.18027 39005 ft 469 kts 174°
2026-05-05 00:20 40.11024 -123.17868 39007 ft 467 kts 175°
2026-05-05 00:20 40.04571 -123.17711 39003 ft 467 kts 175°
2026-05-05 00:21 39.98088 -123.17553 38998 ft 465 kts 175°
2026-05-05 00:21 39.91633 -123.17347 39041 ft 463 kts 174°
2026-05-05 00:22 39.85248 -123.17037 38627 ft 454 kts 174°
2026-05-05 00:22 39.82089 -123.16878 37874 ft 456 kts 173°
2026-05-05 00:22 39.78895 -123.16717 37028 ft 461 kts 173°
2026-05-05 00:22 39.75664 -123.16559 36232 ft 466 kts 173°
2026-05-05 00:23 39.72409 -123.16403 35473 ft 469 kts 172°
2026-05-05 00:23 39.69137 -123.16250 34756 ft 471 kts 172°
2026-05-05 00:23 39.65856 -123.16099 34087 ft 472 kts 172°
2026-05-05 00:23 39.62612 -123.15951 33334 ft 473 kts 172°
2026-05-05 00:24 39.59312 -123.15799 32522 ft 474 kts 172°
2026-05-05 00:24 39.56015 -123.15645 31711 ft 475 kts 172°
2026-05-05 00:24 39.52703 -123.15492 30938 ft 476 kts 172°
2026-05-05 00:24 39.49392 -123.15341 30101 ft 477 kts 172°
2026-05-05 00:25 39.46067 -123.15188 29091 ft 479 kts 173°
2026-05-05 00:25 39.42733 -123.15036 28061 ft 480 kts 173°
2026-05-05 00:25 39.39391 -123.14882 26970 ft 482 kts 173°
2026-05-05 00:25 39.36030 -123.14727 25887 ft 484 kts 173°
2026-05-05 00:26 39.32649 -123.14573 24942 ft 484 kts 173°
2026-05-05 00:26 39.29313 -123.14423 24455 ft 475 kts 174°
2026-05-05 00:26 39.25985 -123.14272 24315 ft 478 kts 174°
2026-05-05 00:26 39.22678 -123.14120 24187 ft 475 kts 174°
2026-05-05 00:27 39.19373 -123.13968 24079 ft 474 kts 174°
2026-05-05 00:27 39.16079 -123.13818 24041 ft 474 kts 174°
2026-05-05 00:27 39.12785 -123.13597 24033 ft 470 kts 169°
2026-05-05 00:27 39.09606 -123.12779 24026 ft 463 kts 159°
2026-05-05 00:28 39.06599 -123.11339 24036 ft 458 kts 151°
2026-05-05 00:28 39.03827 -123.09370 24026 ft 452 kts 142°
2026-05-05 00:28 39.01263 -123.07218 23996 ft 424 kts 142°
2026-05-05 00:28 38.98879 -123.05227 23999 ft 395 kts 141°
2026-05-05 00:29 38.96657 -123.03386 24013 ft 381 kts 141°
2026-05-05 00:29 38.94424 -123.01542 24027 ft 381 kts 141°
2026-05-05 00:29 38.92193 -122.99716 24018 ft 378 kts 142°
2026-05-05 00:29 38.89975 -122.97911 24022 ft 377 kts 142°
2026-05-05 00:30 38.87738 -122.96144 24023 ft 379 kts 147°
2026-05-05 00:30 38.85194 -122.95056 24056 ft 389 kts 162°
2026-05-05 00:30 38.82541 -122.94326 24019 ft 391 kts 162°
2026-05-05 00:30 38.79883 -122.93591 24032 ft 391 kts 162°
2026-05-05 00:31 38.77257 -122.92846 24024 ft 392 kts 161°
2026-05-05 00:31 38.74588 -122.92072 24019 ft 392 kts 161°
2026-05-05 00:31 38.71929 -122.91291 24023 ft 392 kts 161°
2026-05-05 00:31 38.69269 -122.90506 24032 ft 393 kts 161°
2026-05-05 00:32 38.66602 -122.89717 24061 ft 393 kts 161°
2026-05-05 00:32 38.63929 -122.88928 24059 ft 393 kts 161°
2026-05-05 00:32 38.61259 -122.88141 24003 ft 393 kts 161°
2026-05-05 00:32 38.58611 -122.87362 23751 ft 389 kts 161°
2026-05-05 00:33 38.55980 -122.86588 23508 ft 387 kts 161°
2026-05-05 00:33 38.53355 -122.85815 23239 ft 386 kts 161°
2026-05-05 00:33 38.50772 -122.85054 22991 ft 386 kts 161°
2026-05-05 00:33 38.48152 -122.84282 22741 ft 386 kts 161°
2026-05-05 00:34 38.45539 -122.83513 22462 ft 386 kts 161°
2026-05-05 00:34 38.42929 -122.82747 22174 ft 384 kts 161°
2026-05-05 00:34 38.40328 -122.81984 21837 ft 382 kts 161°
2026-05-05 00:34 38.37744 -122.81226 21449 ft 382 kts 161°
2026-05-05 00:35 38.35142 -122.80462 21064 ft 383 kts 161°
2026-05-05 00:35 38.32555 -122.79704 20655 ft 380 kts 161°
2026-05-05 00:35 38.29984 -122.78952 20284 ft 377 kts 161°
2026-05-05 00:35 38.27430 -122.78205 19903 ft 376 kts 161°
2026-05-05 00:36 38.24889 -122.77462 19535 ft 374 kts 161°
2026-05-05 00:36 38.22356 -122.76722 19165 ft 373 kts 162°
2026-05-05 00:36 38.19821 -122.75984 18789 ft 373 kts 162°
2026-05-05 00:36 38.17296 -122.75249 18428 ft 372 kts 162°
2026-05-05 00:37 38.14802 -122.74524 18006 ft 372 kts 162°
2026-05-05 00:37 38.12278 -122.73791 17615 ft 371 kts 162°
2026-05-05 00:37 38.09769 -122.73063 17173 ft 368 kts 162°
2026-05-05 00:37 38.07291 -122.72346 16797 ft 362 kts 163°
2026-05-05 00:38 38.04846 -122.71637 16413 ft 358 kts 163°
2026-05-05 00:38 38.02425 -122.70936 16044 ft 354 kts 163°
2026-05-05 00:38 38.00036 -122.70243 15676 ft 350 kts 163°
2026-05-05 00:38 37.97677 -122.69560 15325 ft 346 kts 163°
2026-05-05 00:39 37.95347 -122.68886 14978 ft 341 kts 164°
2026-05-05 00:39 37.93043 -122.68220 14637 ft 337 kts 164°
2026-05-05 00:39 37.90780 -122.67539 14306 ft 332 kts 160°
2026-05-05 00:39 37.88778 -122.66192 13970 ft 322 kts 139°
2026-05-05 00:40 37.87078 -122.64369 13642 ft 318 kts 137°
2026-05-05 00:40 37.85401 -122.62545 13296 ft 318 kts 137°
2026-05-05 00:40 37.83710 -122.60728 12959 ft 320 kts 137°
2026-05-05 00:40 37.82025 -122.58931 12634 ft 321 kts 137°
2026-05-05 00:41 37.80316 -122.57118 12309 ft 321 kts 138°
2026-05-05 00:41 37.78608 -122.55309 11987 ft 320 kts 138°
2026-05-05 00:41 37.76897 -122.53498 11683 ft 321 kts 138°
2026-05-05 00:41 37.75196 -122.51700 11334 ft 314 kts 137°
2026-05-05 00:42 37.73542 -122.49954 11064 ft 305 kts 137°
2026-05-05 00:42 37.71945 -122.48260 11013 ft 295 kts 137°
2026-05-05 00:42 37.70394 -122.46610 11011 ft 290 kts 137°
2026-05-05 00:42 37.68848 -122.44962 11017 ft 292 kts 137°
2026-05-05 00:43 37.67282 -122.43294 11018 ft 296 kts 138°
2026-05-05 00:43 37.65711 -122.41623 11010 ft 295 kts 137°
2026-05-05 00:43 37.64144 -122.39960 11014 ft 294 kts 138°
2026-05-05 00:43 37.62578 -122.38297 11012 ft 295 kts 137°
2026-05-05 00:44 37.61330 -122.36290 10992 ft 290 kts 109°
2026-05-05 00:44 37.61029 -122.33836 10815 ft 284 kts 85°
2026-05-05 00:44 37.61186 -122.31400 10449 ft 285 kts 83°
2026-05-05 00:44 37.61383 -122.28890 10020 ft 288 kts 83°
2026-05-05 00:45 37.61588 -122.26380 9674 ft 287 kts 83°
2026-05-05 00:45 37.61799 -122.23885 9378 ft 285 kts 83°
2026-05-05 00:45 37.62017 -122.21409 9081 ft 283 kts 83°
2026-05-05 00:45 37.62241 -122.18954 8819 ft 280 kts 83°
2026-05-05 00:46 37.62470 -122.16514 8518 ft 280 kts 83°
2026-05-05 00:46 37.62704 -122.14081 8254 ft 278 kts 83°
2026-05-05 00:46 37.62919 -122.11660 7996 ft 276 kts 89°
2026-05-05 00:46 37.62470 -122.09347 7671 ft 275 kts 121°
2026-05-05 00:47 37.61259 -122.07510 7439 ft 271 kts 133°
2026-05-05 00:47 37.59995 -122.05783 7149 ft 271 kts 133°
2026-05-05 00:47 37.58714 -122.04021 6858 ft 272 kts 133°
2026-05-05 00:47 37.57445 -122.02270 6657 ft 269 kts 133°
2026-05-05 00:48 37.56198 -122.00534 6488 ft 265 kts 133°
2026-05-05 00:48 37.54924 -121.98865 6215 ft 263 kts 143°
2026-05-05 00:48 37.53241 -121.98056 5890 ft 263 kts 177°
2026-05-05 00:48 37.51514 -121.98617 5635 ft 256 kts 213°
2026-05-05 00:49 37.50411 -122.00288 5371 ft 251 kts 246°
2026-05-05 00:49 37.50112 -122.02427 4988 ft 252 kts 263°
2026-05-05 00:49 37.49958 -122.04622 4525 ft 251 kts 263°
2026-05-05 00:49 37.49798 -122.06797 4162 ft 247 kts 264°
2026-05-05 00:50 37.50032 -122.08910 3705 ft 247 kts 296°
2026-05-05 00:50 37.50939 -122.10705 3423 ft 239 kts 300°
2026-05-05 00:50 37.51736 -122.12536 3044 ft 239 kts 295°
2026-05-05 00:50 37.52486 -122.14390 3017 ft 234 kts 295°
2026-05-05 00:51 37.53213 -122.16161 3001 ft 219 kts 296°
2026-05-05 00:51 37.53888 -122.17784 2984 ft 198 kts 296°
2026-05-05 00:51 37.54507 -122.19273 2925 ft 189 kts 296°
2026-05-05 00:51 37.55106 -122.20715 2731 ft 186 kts 296°
2026-05-05 00:52 37.55687 -122.22113 2483 ft 174 kts 296°
2026-05-05 00:52 37.56231 -122.23419 2253 ft 162 kts 296°
2026-05-05 00:52 37.56738 -122.24636 2028 ft 151 kts 295°
2026-05-05 00:52 37.57221 -122.25799 1826 ft 147 kts 295°
2026-05-05 00:53 37.57680 -122.26899 1651 ft 139 kts 295°
2026-05-05 00:53 37.58119 -122.27955 1454 ft 134 kts 295°
2026-05-05 00:53 37.58551 -122.28992 1288 ft 133 kts 294°
2026-05-05 00:53 37.58988 -122.30043 1093 ft 137 kts 295°
2026-05-05 00:54 37.59429 -122.31100 898 ft 134 kts 295°
2026-05-05 00:54 37.59848 -122.32104 706 ft 126 kts 297°
2026-05-05 00:54 37.60259 -122.33091 545 ft 128 kts 297°
2026-05-05 00:54 37.60532 -122.33743 422 ft 125 kts 297°
2026-05-05 00:55 37.61053 -122.34991 216 ft 121 kts 297°
2026-05-05 00:55 37.61457 -122.35961 48 ft 127 kts 296°
2026-05-05 00:55 37.61831 -122.36854 16 ft 88 kts 298°
2026-05-05 00:55 37.62048 -122.37363 15 ft 55 kts 298°
2026-05-05 00:56 37.62146 -122.37557 18 ft 15 kts 310°
2026-05-05 00:56 37.62220 -122.37577 20 ft 17 kts 34°
2026-05-05 00:56 37.62283 -122.37571 17 ft 12 kts 323°
2026-05-05 00:56 37.62325 -122.37663 19 ft 13 kts 299°
2026-05-05 00:57 37.62363 -122.37755 20 ft 10 kts 296°
2026-05-05 00:57 37.62395 -122.37829 21 ft 10 kts 299°
2026-05-05 00:57 37.62431 -122.37913 20 ft 13 kts 298°
2026-05-05 00:57 37.62480 -122.38031 18 ft 18 kts 298°
2026-05-05 00:58 37.62539 -122.38169 17 ft 18 kts 297°
2026-05-05 00:58 37.62589 -122.38285 17 ft 10 kts 301°
2026-05-05 00:58 37.62662 -122.38287 14 ft 16 kts 27°
2026-05-05 00:58 37.62777 -122.38205 14 ft 15 kts 25°
2026-05-05 00:59 37.62849 -122.38161 13 ft 8 kts 27°
2026-05-05 00:59 37.62888 -122.38153 14 ft 8 kts 327°
2026-05-05 00:59 37.62916 -122.38199 13 ft 6 kts 309°
2026-05-05 00:59 37.62918 -122.38202 13 ft 0 kts 310°